カタログに戻る

STARLINK-35906

運用中通信VLEO
NORAD 67112·PAYLOAD·🇺🇸 United States

打ち上げ Dec 15, 2025 から Cape Canaveral Space Force Station

Loading…

次のパス (今後24時間)

TLE

最新Source: CelesTrak SupGP

元期: Sep 15, 2026, 03:34 UTC

1 67112C 25299L   26258.14909722 -.00009692  00000+0 -35106-3 0  2584
2 67112  43.0020 179.2884 0001336 272.4893 264.4667 15.27580742    12

AllMySatでSTARLINK-35906をリアルタイム追跡

Download on the App Store